TimeEST,TemperatureF,Dew PointF,Humidity,Sea Level PressureIn,VisibilityMPH,Wind Direction,Wind SpeedMPH,Gust SpeedMPH,PrecipitationIn,Events,Conditions,WindDirDegrees,DateUTC
12:15 AM,32.0,32.0,100,30.14,10.0,Calm,Calm,-,N/A,,Clear,0,2012-11-09 05:15:00
12:35 AM,32.0,32.0,100,30.14,10.0,WNW,4.6,-,N/A,,Clear,290,2012-11-09 05:35:00
12:55 AM,32.0,32.0,100,30.14,10.0,WNW,3.5,-,N/A,,Clear,290,2012-11-09 05:55:00
1:15 AM,33.8,32.0,93,30.14,10.0,West,5.8,-,N/A,,Clear,280,2012-11-09 06:15:00
1:35 AM,33.8,32.0,93,30.14,10.0,WNW,4.6,-,N/A,,Clear,290,2012-11-09 06:35:00
1:55 AM,33.8,32.0,93,30.14,10.0,NW,4.6,-,N/A,,Clear,310,2012-11-09 06:55:00
2:15 AM,33.8,32.0,93,30.15,10.0,Calm,Calm,-,N/A,,Clear,0,2012-11-09 07:15:00
2:35 AM,33.8,32.0,93,30.16,10.0,West,3.5,-,N/A,,Clear,260,2012-11-09 07:35:00
2:55 AM,33.8,32.0,93,30.16,10.0,Calm,Calm,-,N/A,,Clear,0,2012-11-09 07:55:00
3:15 AM,33.8,32.0,93,30.16,10.0,West,3.5,-,N/A,,Clear,280,2012-11-09 08:15:00
3:35 AM,32.0,32.0,100,30.17,10.0,Calm,Calm,-,N/A,,Clear,0,2012-11-09 08:35:00
3:55 AM,32.0,32.0,100,30.17,10.0,Calm,Calm,-,N/A,,Clear,0,2012-11-09 08:55:00
4:15 AM,30.2,30.2,100,30.18,10.0,Calm,Calm,-,N/A,,Clear,0,2012-11-09 09:15:00
4:35 AM,32.0,32.0,100,30.19,10.0,Calm,Calm,-,N/A,,Clear,0,2012-11-09 09:35:00
4:55 AM,30.2,30.2,100,30.19,10.0,Calm,Calm,-,N/A,,Clear,0,2012-11-09 09:55:00
5:15 AM,32.0,32.0,100,30.20,10.0,Calm,Calm,-,N/A,,Clear,0,2012-11-09 10:15:00
5:35 AM,32.0,32.0,100,30.20,10.0,Calm,Calm,-,N/A,,Clear,0,2012-11-09 10:35:00
5:55 AM,32.0,32.0,100,30.21,7.0,Calm,Calm,-,N/A,,Clear,0,2012-11-09 10:55:00
6:15 AM,30.2,30.2,100,30.21,7.0,Calm,Calm,-,N/A,,Clear,0,2012-11-09 11:15:00
6:55 AM,30.2,30.2,100,30.23,7.0,Calm,Calm,-,N/A,,Clear,0,2012-11-09 11:55:00
7:15 AM,32.0,32.0,100,30.24,10.0,Calm,Calm,-,N/A,,Clear,0,2012-11-09 12:15:00
7:35 AM,35.6,33.8,93,30.24,10.0,Calm,Calm,-,N/A,,Clear,0,2012-11-09 12:35:00
7:55 AM,37.4,33.8,87,30.25,10.0,Calm,Calm,-,N/A,,Clear,0,2012-11-09 12:55:00
8:35 AM,44.6,33.8,66,30.26,10.0,Calm,Calm,-,N/A,,Clear,0,2012-11-09 13:35:00
8:55 AM,46.4,33.8,62,30.26,10.0,Calm,Calm,-,N/A,,Clear,0,2012-11-09 13:55:00
9:15 AM,48.2,33.8,58,30.27,10.0,Calm,Calm,-,N/A,,Clear,0,2012-11-09 14:15:00
9:35 AM,50.0,32.0,50,30.27,10.0,Calm,Calm,-,N/A,,Clear,0,2012-11-09 14:35:00
9:55 AM,53.6,32.0,44,30.27,10.0,Calm,Calm,-,N/A,,Clear,0,2012-11-09 14:55:00
10:15 AM,55.4,32.0,41,30.28,10.0,ESE,3.5,-,N/A,,Clear,120,2012-11-09 15:15:00
10:35 AM,57.2,33.8,41,30.27,4.0,ESE,3.5,-,N/A,,Haze,120,2012-11-09 15:35:00
10:55 AM,60.8,33.8,36,30.27,10.0,South,3.5,-,N/A,,Clear,190,2012-11-09 15:55:00
11:15 AM,60.8,32.0,34,30.27,10.0,Calm,Calm,-,N/A,,Clear,0,2012-11-09 16:15:00
11:55 AM,62.6,32.0,32,30.25,7.0,Calm,Calm,-,N/A,,Clear,0,2012-11-09 16:55:00
12:15 PM,64.4,32.0,30,30.24,10.0,Calm,Calm,-,N/A,,Clear,0,2012-11-09 17:15:00
12:35 PM,66.2,32.0,28,30.23,10.0,Calm,Calm,-,N/A,,Clear,0,2012-11-09 17:35:00
12:55 PM,68.0,32.0,26,30.22,10.0,WSW,5.8,-,N/A,,Clear,250,2012-11-09 17:55:00
1:15 PM,68.0,32.0,26,30.22,10.0,WSW,5.8,-,N/A,,Clear,250,2012-11-09 18:15:00
1:35 PM,68.0,32.0,26,30.21,10.0,Calm,Calm,-,N/A,,Clear,0,2012-11-09 18:35:00
1:55 PM,69.8,32.0,25,30.21,10.0,WSW,4.6,-,N/A,,Clear,250,2012-11-09 18:55:00
2:15 PM,69.8,32.0,25,30.20,10.0,WNW,6.9,-,N/A,,Clear,290,2012-11-09 19:15:00
2:35 PM,69.8,32.0,25,30.20,10.0,WNW,8.1,-,N/A,,Clear,290,2012-11-09 19:35:00
2:55 PM,69.8,30.2,23,30.19,10.0,WSW,5.8,-,N/A,,Clear,250,2012-11-09 19:55:00
3:15 PM,69.8,30.2,23,30.19,10.0,West,6.9,-,N/A,,Clear,270,2012-11-09 20:15:00
3:35 PM,69.8,28.4,21,30.19,10.0,West,5.8,-,N/A,,Clear,260,2012-11-09 20:35:00
3:55 PM,69.8,30.2,23,30.19,10.0,WSW,3.5,-,N/A,,Clear,240,2012-11-09 20:55:00
4:15 PM,69.8,30.2,23,30.19,10.0,West,3.5,-,N/A,,Clear,260,2012-11-09 21:15:00
4:35 PM,68.0,30.2,24,30.20,10.0,WNW,3.5,-,N/A,,Clear,290,2012-11-09 21:35:00
4:55 PM,68.0,30.2,24,30.20,10.0,Calm,Calm,-,N/A,,Clear,0,2012-11-09 21:55:00
5:15 PM,62.6,32.0,32,30.20,10.0,Calm,Calm,-,N/A,,Clear,0,2012-11-09 22:15:00
5:35 PM,59.0,32.0,36,30.20,10.0,Calm,Calm,-,N/A,,Clear,0,2012-11-09 22:35:00
5:55 PM,53.6,33.8,47,30.21,10.0,Calm,Calm,-,N/A,,Clear,0,2012-11-09 22:55:00
6:15 PM,51.8,33.8,50,30.21,10.0,Calm,Calm,-,N/A,,Clear,0,2012-11-09 23:15:00
6:35 PM,50.0,33.8,54,30.22,10.0,Calm,Calm,-,N/A,,Clear,0,2012-11-09 23:35:00
6:55 PM,48.2,33.8,58,30.22,10.0,Calm,Calm,-,N/A,,Clear,0,2012-11-09 23:55:00
7:15 PM,46.4,35.6,66,30.23,10.0,Calm,Calm,-,N/A,,Clear,0,2012-11-10 00:15:00
7:35 PM,44.6,33.8,66,30.23,10.0,Calm,Calm,-,N/A,,Clear,0,2012-11-10 00:35:00
7:55 PM,44.6,35.6,71,30.23,10.0,Calm,Calm,-,N/A,,Clear,0,2012-11-10 00:55:00
8:15 PM,41.0,33.8,76,30.23,10.0,Calm,Calm,-,N/A,,Clear,0,2012-11-10 01:15:00
8:35 PM,42.8,33.8,70,30.24,10.0,Calm,Calm,-,N/A,,Clear,0,2012-11-10 01:35:00
8:55 PM,41.0,33.8,76,30.24,10.0,Calm,Calm,-,N/A,,Clear,0,2012-11-10 01:55:00
9:15 PM,41.0,33.8,76,30.25,10.0,Calm,Calm,-,N/A,,Clear,0,2012-11-10 02:15:00
9:35 PM,41.0,35.6,81,30.25,10.0,Calm,Calm,-,N/A,,Clear,0,2012-11-10 02:35:00
9:55 PM,41.0,33.8,76,30.25,10.0,Calm,Calm,-,N/A,,Clear,0,2012-11-10 02:55:00
10:15 PM,39.2,35.6,87,30.26,10.0,Calm,Calm,-,N/A,,Clear,0,2012-11-10 03:15:00
10:35 PM,39.2,35.6,87,30.26,10.0,Calm,Calm,-,N/A,,Clear,0,2012-11-10 03:35:00
10:55 PM,37.4,33.8,87,30.26,10.0,Calm,Calm,-,N/A,,Clear,0,2012-11-10 03:55:00
11:15 PM,37.4,35.6,93,30.26,10.0,Calm,Calm,-,N/A,,Clear,0,2012-11-10 04:15:00
11:35 PM,37.4,33.8,87,30.27,10.0,Calm,Calm,-,N/A,,Clear,0,2012-11-10 04:35:00
11:55 PM,37.4,33.8,87,30.27,10.0,Calm,Calm,-,N/A,,Clear,0,2012-11-10 04:55:00